STARLINK-32947 (63121 NORAD) Tracking and Keplerian Element Data

This shows tracking and keplerian element data for the satellite.

Feedback or suggestion? Click here.




ElementValue
Catalog63121
NameSTARLINK-32947
Epoch Orbit4570
Epoch Day352.81344063
Epoch Year2025
RAAN109.0243
Inclination43.0001
Eccentricity0.0005303
Argument of Perigee30.7046
Mean Anonmoly329.4115
Mean Motion15.27576298
Decay Rate0.00017325
L11 63121U 25039T 25352.81344063 .00017325 00000+0 63754-3 0 9993
L22 63121 43.0001 109.0243 0005303 30.7046 329.4115 15.27576298 45706



Live tracking and technical data element details for STARLINK-32947 (NORAD 63121). STARLINK-32947 can be tracked NOW for your location showing map with azimuth and elevation plus other details from your city location.







IsCatalogInMostPopularTable: catalog: 63121, numindb: 1
Update: records affected: 1



GetName: 63121 STARLINK-32947

Hit Count: updated at: Wed, 11 Feb 2026 15:11:48 GMT